GW1753 Weather Reports


Display with metric or nautical units.
time (UTC)temp
F
wind
direction
speed
MPH
gust
MPH
rain 1hr
in
rain 24hr
in
rain mn
in
humidity
%
barometer
mb
20260902203326 87 102 8.0 10.0 0.00 0.00 0.00 26 1007.1
20260902202826 87 192 10.0 11.0 0.00 0.00 0.00 26 1007.1
20260902202322 86 160 8.0 13.0 0.00 0.00 0.00 27 1007.2
20260902201819 86 207 8.0 9.0 0.00 0.00 0.00 27 1007.3
20260902201318 86 66 11.0 14.0 0.00 0.00 0.00 26 1007.4
20260902200813 86 201 8.0 11.0 0.00 0.00 0.00 26 1007.4
20260902200308 85 188 5.0 13.0 0.00 0.00 0.00 27 1007.5
20260902195804 82 174 6.0 10.0 0.00 0.00 0.00 29 1007.8
20260902195306 82 126 7.0 10.0 0.00 0.00 0.00 30 1007.9
20260902194758 82 174 3.0 3.0 0.00 0.00 0.00 30 1008.0
20260902194253 81 149 6.0 9.0 0.00 0.00 0.00 30 1008.1
20260902193748 82 122 6.0 8.0 0.00 0.00 0.00 30 1008.1
20260902193244 84 102 3.0 11.0 0.00 0.00 0.00 29 1008.0
20260902192742 82 87 2.0 8.0 0.00 0.00 0.00 30 1008.0
20260902192242 83 110 10.0 14.0 0.00 0.00 0.00 29 1008.2
20260902191736 83 184 8.0 9.0 0.00 0.00 0.00 29 1008.4
20260902191236 81 186 10.0 13.0 0.00 0.00 0.00 30 1008.3
20260902190731 80 125 5.0 9.0 0.00 0.00 0.00 31 1008.3
20260902190231 80 145 5.0 7.0 0.00 0.00 0.00 32 1008.3
20260902185727 80 167 7.0 8.0 0.00 0.00 0.00 32 1008.5
20260902185223 80 162 4.0 8.0 0.00 0.00 0.00 32 1008.6
20260902184718 79 206 2.0 9.0 0.00 0.00 0.00 34 1008.7
20260902184214 79 192 8.0 10.0 0.00 0.00 0.00 34 1009.0
20260902183709 79 230 5.0 8.0 0.00 0.00 0.00 34 1009.0
20260902183205 79 226 8.0 10.0 0.00 0.00 0.00 34 1009.0
20260902182701 78 184 4.0 7.0 0.00 0.00 0.00 35 1008.7
20260902182157 79 209 7.0 10.0 0.00 0.00 0.00 35 1009.2
20260902181653 79 171 6.0 9.0 0.00 0.00 0.00 34 1009.1
20260902181148 79 243 4.0 8.0 0.00 0.00 0.00 35 1009.3
20260902180647 79 197 9.0 11.0 0.00 0.00 0.00 33 1009.2
20260902180143 79 255 6.0 9.0 0.00 0.00 0.00 35 1009.3
20260902175643 79 230 5.0 7.0 0.00 0.00 0.00 35 1009.3
20260902175139 78 247 7.0 9.0 0.00 0.00 0.00 36 1009.3
20260902174635 78 198 4.0 7.0 0.00 0.00 0.00 36 1009.5
20260902174131 78 212 6.0 14.0 0.00 0.00 0.00 37 1009.4
20260902173626 77 216 9.0 10.0 0.00 0.00 0.00 38 1009.6
20260902173121 77 198 10.0 13.0 0.00 0.00 0.00 37 1009.6
20260902172620 78 192 10.0 13.0 0.00 0.00 0.00 37 1009.6
20260902172114 77 188 6.0 10.0 0.00 0.00 0.00 39 1009.7
20260902171610 78 192 7.0 11.0 0.00 0.00 0.00 38 1009.6
20260902171106 77 211 4.0 9.0 0.00 0.00 0.00 39 1009.8
20260902170601 76 199 7.0 10.0 0.00 0.00 0.00 39 1009.7
20260902170057 75 204 9.0 11.0 0.00 0.00 0.00 40 1009.8
20260902165556 75 193 10.0 11.0 0.00 0.00 0.00 41 1009.6
20260902165051 76 187 7.0 11.0 0.00 0.00 0.00 39 1009.7
20260902164546 76 182 5.0 10.0 0.00 0.00 0.00 40 1009.6
20260902164045 75 225 6.0 10.0 0.00 0.00 0.00 41 1009.8
20260902163541 74 200 4.0 8.0 0.00 0.00 0.00 43 1009.8
20260902163039 74 205 2.0 7.0 0.00 0.00 0.00 43 1009.9
20260902162539 73 104 5.0 6.0 0.00 0.00 0.00 43 1009.7
20260902162034 71 169 2.0 3.0 0.00 0.00 0.00 45 1010.0
20260902161529 72 198 2.0 4.0 0.00 0.00 0.00 45 1010.0
20260902161025 73 206 2.0 4.0 0.00 0.00 0.00 44 1010.0
20260902160521 71 224 0.0 0.0 0.00 0.00 0.00 45 1009.9
20260902160021 71 72 0.0 0.0 0.00 0.00 0.00 45 1009.9
20260902155514 70 105 1.0 2.0 0.00 0.00 0.00 46 1009.8
20260902155013 70 304 1.0 2.0 0.00 0.00 0.00 48 1009.9
20260902154508 69 63 2.0 3.0 0.00 0.00 0.00 48 1010.2
20260902154003 69 105 3.0 4.0 0.00 0.00 0.00 48 1010.2
20260902153501 68 132 2.0 3.0 0.00 0.00 0.00 49 1010.4
20260902152957 68 75 2.0 3.0 0.00 0.00 0.00 50 1010.3
20260902152454 69 76 2.0 4.0 0.00 0.00 0.00 49 1010.3
20260902151948 68 132 1.0 3.0 0.00 0.00 0.00 49 1010.6
20260902151445 69 167 1.0 2.0 0.00 0.00 0.00 48 1010.6
20260902150939 69 185 0.0 1.0 0.00 0.00 0.00 48 1010.7
20260902150435 68 121 1.0 2.0 0.00 0.00 0.00 49 1010.5
20260902145934 68 180 1.0 2.0 0.00 0.00 0.00 49 1010.6
20260902145430 67 169 2.0 2.0 0.00 0.00 0.00 50 1010.7
20260902144930 66 140 1.0 1.0 0.00 0.00 0.00 52 1010.6
20260902144426 65 177 1.0 2.0 0.00 0.00 0.00 54 1010.8
20260902143926 65 163 1.0 2.0 0.00 0.00 0.00 55 1010.8
20260902143421 65 66 3.0 3.0 0.00 0.00 0.00 55 1010.9
20260902142916 63 263 0.0 1.0 0.00 0.00 0.00 58 1011.0
20260902142412 63 69 2.0 3.0 0.00 0.00 0.00 57 1010.8
20260902141907 62 265 0.0 1.0 0.00 0.00 0.00 61 1011.0
20260902141403 61 269 0.0 1.0 0.00 0.00 0.00 61 1011.1
20260902140902 60 295 0.0 1.0 0.00 0.00 0.00 62 1010.9
20260902140357 60 262 0.0 0.0 0.00 0.00 0.00 64 1011.1
20260902135852 60 265 0.0 0.0 0.00 0.00 0.00 64 1011.0
20260902135348 60 268 0.0 1.0 0.00 0.00 0.00 64 1010.9
20260902134847 59 263 0.0 0.0 0.00 0.00 0.00 63 1010.9
20260902134343 59 259 0.0 0.0 0.00 0.00 0.00 63 1010.8
20260902133838 60 277 0.0 1.0 0.00 0.00 0.00 62 1010.8
20260902133337 59 347 1.0 2.0 0.00 0.00 0.00 62 1010.7
20260902132832 58 280 0.0 1.0 0.00 0.00 0.00 63 1010.8
20260902132327 58 276 0.0 1.0 0.00 0.00 0.00 64 1010.8
20260902131823 58 267 1.0 1.0 0.00 0.00 0.00 63 1010.8
20260902131320 59 284 1.0 1.0 0.00 0.00 0.00 62 1010.9
20260902130819 59 205 1.0 1.0 0.00 0.00 0.00 61 1010.9
20260902130315 58 213 0.0 1.0 0.00 0.00 0.00 62 1011.0
20260902125809 58 211 0.0 1.0 0.00 0.00 0.00 63 1010.8
20260902125306 58 259 0.0 1.0 0.00 0.00 0.00 63 1010.7
20260902124801 57 275 1.0 1.0 0.00 0.00 0.00 64 1010.5
20260902124258 57 271 0.0 1.0 0.00 0.00 0.00 64 1010.7
20260902123757 57 299 1.0 2.0 0.00 0.00 0.00 64 1010.5
20260902123254 57 274 1.0 2.0 0.00 0.00 0.00 64 1010.6
20260902122752 57 291 2.0 3.0 0.00 0.00 0.00 64 1010.8
20260902122249 57 244 4.0 4.0 0.00 0.00 0.00 63 1010.8
20260902121748 58 257 2.0 3.0 0.00 0.00 0.00 63 1010.8
20260902121243 58 249 5.0 6.0 0.00 0.00 0.00 61 1010.7
20260902120738 59 223 3.0 3.0 0.00 0.00 0.00 60 1010.6
20260902120230 60 229 2.0 3.0 0.00 0.00 0.00 59 1010.5
20260902115729 60 292 2.0 2.0 0.00 0.00 0.00 59 1010.5
20260902115226 60 335 2.0 3.0 0.00 0.00 0.00 59 1010.5
20260902114721 60 298 2.0 3.0 0.00 0.00 0.00 58 1010.4
20260902114218 60 289 3.0 3.0 0.00 0.00 0.00 58 1010.4
20260902113717 61 307 2.0 3.0 0.00 0.00 0.00 57 1010.4
20260902113213 61 304 2.0 3.0 0.00 0.00 0.00 56 1010.5
20260902112706 61 302 2.0 4.0 0.00 0.00 0.00 55 1010.5
20260902112204 61 284 3.0 4.0 0.00 0.00 0.00 55 1010.5
20260902111659 60 304 3.0 3.0 0.00 0.00 0.00 56 1010.8
20260902111155 60 284 2.0 4.0 0.00 0.00 0.00 56 1010.6
20260902110650 61 304 4.0 4.0 0.00 0.00 0.00 55 1010.8
20260902110146 61 286 4.0 4.0 0.00 0.00 0.00 55 1010.9
20260902105646 61 265 3.0 6.0 0.00 0.00 0.00 54 1010.9
20260902105141 61 310 3.0 7.0 0.00 0.00 0.00 53 1010.8
20260902104636 61 257 4.0 6.0 0.00 0.00 0.00 54 1010.9
20260902104131 61 295 4.0 6.0 0.00 0.00 0.00 52 1011.1
20260902103631 62 256 4.0 9.0 0.00 0.00 0.00 51 1011.1
20260902103126 62 293 4.0 8.0 0.00 0.00 0.00 51 1011.2
20260902102623 62 257 7.0 9.0 0.00 0.00 0.00 52 1011.0
20260902102119 61 247 4.0 8.0 0.00 0.00 0.00 53 1011.0
20260902101615 60 252 3.0 4.0 0.00 0.00 0.00 56 1011.0
20260902101109 60 307 5.0 7.0 0.00 0.00 0.00 56 1011.0
20260902100609 60 239 6.0 8.0 0.00 0.00 0.00 56 1010.8
20260902100104 60 312 7.0 8.0 0.00 0.00 0.00 56 1010.8
20260902095603 60 253 6.0 9.0 0.00 0.00 0.00 56 1011.0
20260902095102 59 265 5.0 8.0 0.00 0.00 0.00 57 1011.1
20260902094557 59 241 4.0 6.0 0.00 0.00 0.00 57 1011.0
20260902094054 59 263 3.0 7.0 0.00 0.00 0.00 57 1011.0
20260902093553 59 251 8.0 10.0 0.00 0.00 0.00 56 1011.1
20260902093049 58 246 1.0 4.0 0.00 0.00 0.00 57 1011.0
20260902092543 59 232 1.0 2.0 0.00 0.00 0.00 57 1011.0
20260902092038 59 263 3.0 4.0 0.00 0.00 0.00 56 1011.4
20260902091534 59 221 2.0 3.0 0.00 0.00 0.00 56 1011.1
20260902091029 59 166 5.0 7.0 0.00 0.00 0.00 56 1011.1
20260902090526 60 206 3.0 4.0 0.00 0.00 0.00 55 1010.7
20260902090024 60 176 2.0 3.0 0.00 0.00 0.00 54 1010.8
20260902085524 60 183 3.0 4.0 0.00 0.00 0.00 54 1010.9
20260902085019 60 172 3.0 3.0 0.00 0.00 0.00 54 1011.0
20260902084516 60 162 2.0 4.0 0.00 0.00 0.00 53 1011.1
20260902084011 62 186 2.0 3.0 0.00 0.00 0.00 52 1011.0
20260902083506 62 183 4.0 6.0 0.00 0.00 0.00 50 1011.2
20260902083000 62 180 3.0 6.0 0.00 0.00 0.00 50 1011.0
20260902082457 62 174 3.0 4.0 0.00 0.00 0.00 50 1011.1
20260902081953 62 194 2.0 4.0 0.00 0.00 0.00 50 1011.1
20260902081450 63 146 2.0 3.0 0.00 0.00 0.00 49 1011.2
20260902080949 64 170 2.0 3.0 0.00 0.00 0.00 47 1011.1
20260902080446 65 179 1.0 2.0 0.00 0.00 0.00 47 1011.2
20260902075945 65 220 0.0 0.0 0.00 0.00 0.00 46 1011.2
20260902075441 66 131 2.0 4.0 0.00 0.00 0.00 45 1011.0
20260902074936 65 155 5.0 7.0 0.00 0.00 0.00 46 1011.1
20260902074432 65 132 4.0 6.0 0.00 0.00 0.00 46 1011.1
20260902073926 66 182 2.0 7.0 0.00 0.00 0.00 45 1011.2
20260902073422 66 173 5.0 8.0 0.00 0.00 0.00 44 1011.2
20260902072918 67 175 7.0 9.0 0.00 0.00 0.00 43 1011.1
20260902072414 67 145 4.0 6.0 0.00 0.00 0.00 42 1011.2
20260902071911 68 146 4.0 10.0 0.00 0.00 0.00 41 1010.9
20260902071410 68 127 6.0 11.0 0.00 0.00 0.00 41 1010.7
20260902070906 68 114 9.0 11.0 0.00 0.00 0.00 42 1010.9
20260902070402 68 124 5.0 11.0 0.00 0.00 0.00 41 1010.9
20260902065900 68 128 6.0 9.0 0.00 0.00 0.00 41 1010.7
20260902065355 69 132 6.0 11.0 0.00 0.00 0.00 40 1010.8
20260902064851 68 110 6.0 11.0 0.00 0.00 0.00 41 1010.7
20260902064347 68 123 6.0 9.0 0.00 0.00 0.00 41 1010.9
20260902063842 69 142 6.0 9.0 0.00 0.00 0.00 41 1011.0
20260902063343 68 115 4.0 8.0 0.00 0.00 0.00 41 1011.0
20260902062843 68 82 6.0 8.0 0.00 0.00 0.00 41 1011.2
20260902062343 69 119 2.0 3.0 0.00 0.00 0.00 40 1011.2
20260902061842 69 78 4.0 4.0 0.00 0.00 0.00 41 1011.2
20260902061343 69 78 3.0 3.0 0.00 0.00 0.00 40 1011.4
20260902060839 69 76 3.0 4.0 0.00 0.00 0.00 40 1011.1
20260902060334 68 74 4.0 4.0 0.00 0.00 0.00 40 1011.4
20260902055830 68 78 3.0 6.0 0.00 0.00 0.00 40 1011.5
20260902055326 69 74 2.0 3.0 0.00 0.00 0.00 40 1011.4
20260902054821 68 105 4.0 6.0 0.00 0.00 0.00 40 1011.4
20260902054317 69 106 2.0 4.0 0.00 0.00 0.00 40 1011.2
20260902053813 68 93 4.0 8.0 0.00 0.00 0.00 40 1011.7
20260902053313 68 82 4.0 7.0 0.00 0.00 0.00 40 1011.4
20260902052811 69 82 4.0 7.0 0.00 0.00 0.00 39 1011.5
20260902052307 69 93 4.0 7.0 0.00 0.00 0.00 39 1011.4
20260902051802 69 99 5.0 8.0 0.00 0.00 0.00 40 1011.2
20260902051301 68 98 4.0 7.0 0.00 0.00 0.00 41 1011.6
20260902050756 68 115 4.0 8.0 0.00 0.00 0.00 41 1011.6
20260902050251 67 78 3.0 6.0 0.00 0.00 0.00 41 1011.2
20260902045751 68 67 5.0 7.0 0.00 0.00 0.00 41 1011.5
20260902045247 68 82 4.0 6.0 0.00 0.00 0.00 41 1011.4
20260902044743 68 94 4.0 6.0 0.00 0.00 0.00 41 1011.5
20260902044237 67 80 5.0 6.0 0.00 0.00 0.00 41 1011.5
20260902043732 68 85 5.0 6.0 0.00 0.00 0.00 40 1011.5
20260902043228 69 76 5.0 6.0 0.00 0.00 0.00 40 1011.5
20260902042727 69 81 4.0 7.0 0.00 0.00 0.00 39 1011.5
20260902042222 69 72 5.0 7.0 0.00 0.00 0.00 39 1011.5
20260902041718 69 87 4.0 7.0 0.00 0.00 0.00 39 1011.5
20260902041212 69 78 4.0 6.0 0.00 0.00 0.00 39 1011.5
20260902040712 69 67 4.0 6.0 0.00 0.00 0.00 39 1011.5
20260902040208 70 76 4.0 7.0 0.00 0.00 0.00 38 1011.5
20260902035706 71 83 6.0 8.0 0.00 0.00 0.00 37 1011.6
20260902035202 71 100 5.0 7.0 0.00 0.00 0.00 37 1011.5
20260902034701 71 98 4.0 6.0 0.00 0.00 0.00 37 1011.6
20260902034200 72 79 4.0 4.0 0.00 0.00 0.00 36 1011.6
20260902033659 72 109 4.0 6.0 0.00 0.00 0.00 36 1011.6
20260902033155 72 108 4.0 6.0 0.00 0.00 0.00 36 1011.7
20260902032653 73 85 4.0 7.0 0.00 0.00 0.00 35 1011.7
20260902032148 72 74 4.0 6.0 0.00 0.00 0.00 35 1011.6
20260902031648 73 74 4.0 6.0 0.00 0.00 0.00 35 1011.8
20260902031144 73 76 2.0 3.0 0.00 0.00 0.00 34 1011.7
20260902030639 73 72 4.0 6.0 0.00 0.00 0.00 35 1011.8
20260902030138 73 80 5.0 6.0 0.00 0.00 0.00 35 1011.7
20260902025638 73 69 4.0 4.0 0.00 0.00 0.00 35 1011.6
20260902025134 72 82 2.0 4.0 0.00 0.00 0.00 35 1011.6
20260902024629 72 74 2.0 3.0 0.00 0.00 0.00 36 1011.6
20260902024130 72 91 2.0 3.0 0.00 0.00 0.00 36 1011.4
20260902023626 72 94 3.0 3.0 0.00 0.00 0.00 35 1011.5
20260902023126 72 109 2.0 3.0 0.00 0.00 0.00 35 1011.6
20260902022625 73 89 1.0 3.0 0.00 0.00 0.00 35 1011.6
20260902022122 73 125 2.0 4.0 0.00 0.00 0.00 35 1011.5
20260902021617 73 96 2.0 3.0 0.00 0.00 0.00 34 1011.6
20260902021117 74 112 3.0 4.0 0.00 0.00 0.00 33 1011.6
20260902020613 75 106 4.0 8.0 0.00 0.00 0.00 32 1011.5
20260902020108 75 120 4.0 8.0 0.00 0.00 0.00 31 1011.4
20260902015604 76 86 4.0 8.0 0.00 0.00 0.00 30 1011.6
20260902015059 76 87 3.0 4.0 0.00 0.00 0.00 29 1011.5
20260902014555 76 95 2.0 3.0 0.00 0.00 0.00 29 1011.4
20260902014050 77 79 2.0 3.0 0.00 0.00 0.00 29 1011.1
20260902013550 77 96 4.0 4.0 0.00 0.00 0.00 29 1011.6
20260902013046 78 82 3.0 3.0 0.00 0.00 0.00 29 1011.2
20260902012547 78 78 3.0 3.0 0.00 0.00 0.00 28 1011.6
20260902012042 78 102 3.0 3.0 0.00 0.00 0.00 28 1011.6
20260902011538 79 90 3.0 4.0 0.00 0.00 0.00 27 1011.4
20260902011037 80 117 3.0 4.0 0.00 0.00 0.00 27 1011.6
20260902010536 81 133 2.0 3.0 0.00 0.00 0.00 27 1011.5
20260902010032 82 128 2.0 3.0 0.00 0.00 0.00 26 1011.5
20260902005530 82 135 2.0 3.0 0.00 0.00 0.00 26 1011.8
20260902005027 82 148 1.0 2.0 0.00 0.00 0.00 25 1011.6
20260902004526 82 135 3.0 4.0 0.00 0.00 0.00 25 1011.5
20260902004021 83 144 2.0 3.0 0.00 0.00 0.00 25 1011.7
20260902003517 84 124 3.0 3.0 0.00 0.00 0.00 24 1011.8
20260902003012 83 183 2.0 4.0 0.00 0.00 0.00 24 1011.6
20260902002508 84 129 4.0 7.0 0.00 0.00 0.00 24 1011.7
20260902002002 84 123 2.0 6.0 0.00 0.00 0.00 24 1011.7
20260902001456 84 149 5.0 6.0 0.00 0.00 0.00 24 1011.7
20260902000952 84 136 2.0 7.0 0.00 0.00 0.00 23 1011.9
20260902000447 84 166 4.0 6.0 0.00 0.00 0.00 24 1011.8
20260901235942 84 179 2.0 4.0 0.00 0.00 0.00 23 1011.7
20260901235436 84 165 3.0 6.0 0.00 0.00 0.00 23 1011.8
20260901234932 84 141 3.0 4.0 0.00 0.00 0.00 23 1011.7
20260901234431 84 108 5.0 6.0 0.00 0.00 0.00 23 1012.0
20260901233926 84 172 3.0 6.0 0.00 0.00 0.00 23 1011.8
20260901233421 85 188 5.0 7.0 0.00 0.00 0.00 22 1011.8
20260901232918 84 127 4.0 6.0 0.00 0.00 0.00 23 1011.7
20260901232418 84 80 2.0 6.0 0.00 0.00 0.00 23 1012.1
20260901231913 84 208 4.0 6.0 0.00 0.00 0.00 23 1012.0
20260901231409 84 190 3.0 6.0 0.00 0.00 0.00 23 1011.8
20260901230906 84 140 4.0 7.0 0.00 0.00 0.00 24 1012.1
20260901230405 85 166 7.0 10.0 0.00 0.00 0.00 23 1012.2
20260901225901 85 177 6.0 9.0 0.00 0.00 0.00 23 1012.0
20260901225400 84 219 1.0 6.0 0.00 0.00 0.00 23 1012.1
20260901224855 84 180 4.0 10.0 0.00 0.00 0.00 24 1012.2
20260901224352 84 74 3.0 6.0 0.00 0.00 0.00 24 1012.3
20260901223848 84 198 7.0 14.0 0.00 0.00 0.00 24 1012.2
20260901223343 84 87 6.0 7.0 0.00 0.00 0.00 25 1012.2
20260901222838 83 122 6.0 7.0 0.00 0.00 0.00 25 1012.6
20260901222335 84 122 7.0 9.0 0.00 0.00 0.00 25 1012.6
20260901221830 84 142 9.0 11.0 0.00 0.00 0.00 25 1012.6
20260901221326 84 86 7.0 14.0 0.00 0.00 0.00 25 1012.6
20260901220825 85 145 6.0 8.0 0.00 0.00 0.00 25 1012.4
20260901220324 86 134 8.0 10.0 0.00 0.00 0.00 25 1012.8
20260901215823 85 124 7.0 11.0 0.00 0.00 0.00 25 1013.0
20260901215323 84 104 4.0 8.0 0.00 0.00 0.00 25 1012.8
20260901214821 84 131 4.0 6.0 0.00 0.00 0.00 25 1012.9
20260901214320 82 166 5.0 7.0 0.00 0.00 0.00 26 1012.9
20260901213815 82 194 6.0 8.0 0.00 0.00 0.00 25 1013.0
20260901213315 82 151 4.0 8.0 0.00 0.00 0.00 26 1013.1
20260901212810 82 162 4.0 8.0 0.00 0.00 0.00 26 1013.1
20260901212306 82 151 5.0 8.0 0.00 0.00 0.00 26 1013.1
20260901211801 83 114 6.0 9.0 0.00 0.00 0.00 26 1013.1
20260901211257 84 122 8.0 10.0 0.00 0.00 0.00 26 1013.1
20260901210753 86 203 7.0 9.0 0.00 0.00 0.00 24 1013.3
20260901210248 85 176 3.0 7.0 0.00 0.00 0.00 26 1013.1
20260901205744 83 217 7.0 9.0 0.00 0.00 0.00 25 1013.3
20260901205244 84 154 7.0 9.0 0.00 0.00 0.00 26 1013.4
20260901204739 85 217 6.0 8.0 0.00 0.00 0.00 25 1013.7
20260901204235 83 157 3.0 8.0 0.00 0.00 0.00 26 1013.7
20260901203730 81 226 3.0 4.0 0.00 0.00 0.00 26 1013.5